Regional Weather Roundup
Issued by NWS Green Bay, WI

Home | Current Version | Previous Version | Text Only | Print | Product List | Glossary On
Versions: 1 2 3 4 5 6 7 8 9 10 11 12 13 14 15 16 17 18 19 20 21 22 23 24 25 26 27 28 29 30 31 32 33 34 35 36 37 38 39 40 41 42 43 44 45 46 47 48 49 50
000
ASUS43 KGRB 031559
RWRGRB

NORTH-CENTRAL AND NORTHEAST WISCONSIN REGIONAL WEATHER ROUNDUP
NATIONAL WEATHER SERVICE GREEN BAY WI
1000 AM CST TUE MAR 03 2015

WIZ005-009-010>012-018-019-031700-
NORTH CENTRAL WISCONSIN

CITY           SKY/WX    TMP DP  RH WIND       PRES   REMARKS
IRONWOOD       CLOUDY    19  16  86 S9        29.61F VSB 1/2 WCI   9
MANITOWISH WTR NOT AVBL
ARBOR VITAE    NOT AVBL
EAGLE RIVER    NOT AVBL
LAND O LAKES   NOT AVBL
RHINELANDER    SNOW      20  15  81 S6        29.65F VSB 1/2
PHILLIPS       NOT AVBL
ANTIGO         NOT AVBL
TOMAHAWK       NOT AVBL
MERRILL        NOT AVBL
$$

WIZ013-073-031700-
NORTHEAST WISCONSIN

CITY           SKY/WX    TMP DP  RH WIND       PRES   REMARKS
IRON MOUNTAIN  SNOW      21  18  88 S5        29.67F VSB 1/2
MARINETTE      CLOUDY    27  25  93 S9G17     29.70F
$$

WIZ017-030-035>037-045-031700-
CENTRAL WISCONSIN

CITY           SKY/WX    TMP DP  RH WIND       PRES   REMARKS
MEDFORD        NOT AVBL
WAUSAU         LGT SNOW  21  19  92 S8        29.65F FOG
MOSINEE        CLOUDY    21  21 100 S7        29.67F
MARSHFIELD     LGT SNOW  22  19  89 S9        29.65F FOG
WISC RAPIDS    FRZ RAIN  22  19  89 S7        29.68F FOG
STEVENS POINT  NOT AVBL
WAUPACA        NOT AVBL
SHAWANO        NOT AVBL
CLINTONVILLE   NOT AVBL
$$

WIZ038-039-048-051-031700-
FOX VALLEY

CITY           SKY/WX    TMP DP  RH WIND       PRES   REMARKS
NWS GREEN BAY  LGT SNOW  26  24  92 S9        29.69F FOG
APPLETON       LGT SNOW  25  23  93 S9        29.69F
OSHKOSH        SNOW      26  23  88 S9        29.68F VSB 1/2
FOND DU LAC    SNOW      26  23  88 S9        29.68F VSB 1/2
$$

WIZ022-050-052-031700-
EAST CENTRAL WISCONSIN

CITY           SKY/WX    TMP DP  RH WIND       PRES   REMARKS
STURGEON BAY   CLOUDY    28  25  86 S15G21    29.72F
MANITOWOC      NOT AVBL
SHEBOYGAN      SNOW      28  25  88 S16G25    29.70F VSB 1/2
$$

LMZ563-521-522-541>543-031700-
LAKESHORE

STATION/POSITION TIME  TEMP    WIND        PRES    VSBY  WAVE
                       AIR SEA DIR/SP/G                  HT/PER
                 (UTC) (F)     (DEG/KT/KT) (MB)    (MI)  (FT/S)
SHEBOYGAN LKSHOR 1500   29     170/ 26/ 28 1008.7F
KEWAUNEE LKSHORE 1500   29     180/ 22/ 29   N/A
NORTHPORT PIER   1500   26     160/  8/ 18 1007.8F
SISTER BAY LKSHO 1500   28     190/ 17/ 22   N/A
CHAMBERS ISLAND  1500   27     140/  7/ 12 1007.5F
MENOMINEE LKSHOR 1500   26     160/ 10       N/A
$$



USA.gov is the U.S. government's official web portal to all federal, state and local government web resources and services.